Рединг

США     40°21′52″N   75°55′34″W
темп.,
°C
ветер,
м/с
пор.,
м/с
влажн.,
%
обл.,
%
осадки,
мм/ч
давл.,
гПа
погр.,
м
19 апреля, пн
пн1923:00+8ю11775 0.0 101210
02:00+7ю118396 0.1 101210
05:00+6юв008370 0.0 101210
08:00+8с0175100 0.0 101280
11:00+14зсз2258100 0.1 1011662
14:00+16зюз344774 0.4 10101876
17:00+15з345458 0.1 10091133
20:00+11юз22711 0.1 101115
20 апреля, вт
вт2023:00+8ююз22865 0.0 101328
02:00+7ююз23874 0.0 101347
05:00+6ююз25885 0.0 1013111
08:00+9з39765 0.0 1015293
11:00+14з576599 0.0 10161162
14:00+14з4763100 0.0 10161245
17:00+15зсз355973 0.0 1014646
20:00+12с1173100 0.0 101413
21 апреля, ср
ср2123:00+11в247946 0.0 1014115
02:00+11ю3127913 0.0 1011546
05:00+11ю5138696 0.4 1009505
08:00+12ю7168833 1.1 1007771
11:00+16ююз81473100 0.2 10041015
14:00+7зсз9168696 1.9 1005765
17:00+7сз8136773 0.6 10071686
20:00+4сз6117195 0.7 10101225
22 апреля, чт
чт2223:00+2зсз511787 0.3 10121173
02:00−1зсз613671 0.3 1013982
05:00−1зсз613645 0.0 10141207
08:00+1зсз714550 0.0 10151337
11:00+6зсз81339100 0.0 10152673
14:00+8зсз81438100 0.0 10143083
17:00+9зсз8144699 0.2 10142467
20:00+5зсз5115735 0.2 1016879
23 апреля, пт
пт2323:00+2з311680 0.0 1018462
02:00+1зюз413825 0.0 1018484
05:00+2з515784 0.0 1017641
08:00+4з615711 0.0 1018726
11:00+10зсз812505 0.0 10181324
14:00+14зсз6114492 0.0 10172333
17:00+15зсз5104576 0.0 10162505
20:00+11з386697 0.0 1017192